This demonstration page uses our WeatherBlox Daily Observations layout. Learn more.

Left ArrowRight Arrow

40.92945, -100.16068

Hourly Observations for September 18, 2016

Temp ( °F °C ) Dew Point ( °F °C ) Humidity (%) Winds ( mph kmh ) Pressure ( in mb ) Visibility ( mi km ) Precip ( " mm )
12:15 am 00:15 Clear 56 13.3 51 10.5 83 83 N N/A 29.94 1014 10 16 N/A
12:35 am 00:35 Clear 56 13.5 52 11 85 85 SSW 5 7 29.94 1014 10 16 N/A
12:55 am 00:55 Clear 55 12.7 51 10.5 87 87 N N/A 29.97 1015 10 16 N/A
1:15 am 01:15 Clear 52 11.2 49 9.3 88 88 W 3 6 29.97 1015 10 16 N/A
1:35 am 01:35 Clear 52 11 50 10 94 94 N N/A 29.97 1015 10 16 N/A
1:55 am 01:55 Clear 52 11.1 50 10.1 94 94 N N/A 29.97 1015 10 16 N/A
2:15 am 02:15 Clear 52 10.9 50 9.9 94 94 SW 3 6 29.97 1015 10 16 N/A
2:35 am 02:35 Clear 51 10.5 49 9.4 93 93 N N/A 29.97 1015 10 16 N/A
2:55 am 02:55 Clear 50 10 48 8.7 92 92 N N/A 29.97 1015 10 16 N/A
3:15 am 03:15 Clear 50 10.2 49 9.4 95 95 N N/A 29.97 1015 10 16 N/A
3:35 am 03:35 Clear 50 9.9 48 9.1 95 95 WNW 3 6 29.97 1015 10 16 N/A
3:55 am 03:55 Clear 51 10.5 49 9.5 94 94 N N/A 29.94 1014 10 16 N/A
4:15 am 04:15 Clear 51 10.4 49 9.3 93 93 N N/A 29.94 1014 10 16 N/A
4:35 am 04:35 Clear 50 10 48 9 94 94 N N/A 29.94 1014 10 16 N/A
4:55 am 04:55 Clear 51 10.5 48 9.1 91 91 N N/A 29.94 1014 10 16 N/A
5:15 am 05:15 Clear 50 10 48 8.8 92 92 N N/A 29.94 1014 10 16 N/A
5:35 am 05:35 Clear 49 9.6 47 8.5 93 93 N N/A 29.94 1014 10 16 N/A
5:55 am 05:55 Partly Cloudy 51 10.6 49 9.5 93 93 N N/A 29.94 1014 10 16 N/A
6:15 am 06:15 Clear 49 9.3 47 8.2 93 93 N N/A 29.97 1015 10 16 N/A
6:35 am 06:35 Clear 49 9.6 47 8.6 94 94 N N/A 29.94 1014 10 16 N/A
6:55 am 06:55 Clear 49 9.5 47 8.5 94 94 N N/A 29.94 1014 10 16 N/A
7:15 am 07:15 Clear 49 9.6 47 8.6 94 94 N N/A 29.94 1014 10 16 N/A
7:35 am 07:35 Sunny 50 10.1 48 8.9 92 92 N N/A 29.94 1014 10 16 N/A
7:55 am 07:55 Sunny 50 10.1 47 8.5 90 90 S 5 7 29.94 1014 10 16 N/A
8:15 am 08:15 Sunny 53 11.4 50 10 91 91 SSW 3 6 29.94 1014 10 16 N/A
8:35 am 08:35 Sunny 56 13.5 51 10.7 83 83 N N/A 29.91 1013 10 16 N/A
8:55 am 08:55 Sunny 58 14.5 52 11 80 80 SW 3 6 29.91 1013 10 16 N/A
9:15 am 09:15 Sunny 59 15 52 11.1 78 78 SW 3 6 29.91 1013 10 16 N/A
9:35 am 09:35 Sunny 59 14.9 54 12.1 83 83 N N/A 29.91 1013 10 16 N/A
9:55 am 09:55 Sunny 63 17 54 12.1 73 73 SSW 7 11 29.88 1012 10 16 N/A
10:15 am 10:15 Sunny 64 18 55 12.5 70 70 SSW 9 15 29.88 1012 10 16 N/A
10:35 am 10:35 Sunny 66 19 55 12.8 67 67 SW 8 13 29.88 1012 10 16 N/A
10:55 am 10:55 Sunny 68 20.1 56 13.1 64 64 SW 5 7 29.85 1011 10 16 N/A
11:15 am 11:15 Sunny 69 20.8 56 13.4 63 63 SSW 9 15 29.85 1011 10 16 N/A
11:35 am 11:35 Sunny 71 21.5 56 13.6 61 61 WSW 8 13 29.85 1011 10 16 N/A
11:55 am 11:55 Sunny 72 22.4 57 13.8 58 58 SSW 7 11 29.83 1010 10 16 N/A
12:15 pm 12:15 Sunny 74 23.4 57 13.8 55 55 S 8 13 29.80 1009 10 16 N/A
12:35 pm 12:35 Sunny 76 24.2 56 13.5 51 51 SSW 10 17 29.80 1009 10 16 N/A
12:55 pm 12:55 Sunny 78 25.4 56 13.4 47 47 SW 9 15 29.80 1009 10 16 N/A
1:15 pm 13:15 Sunny 79 26.2 55 12.7 43 43 SSW 8 13 29.77 1008 10 16 N/A
1:35 pm 13:35 Sunny 81 27 56 13.2 43 43 SW 10 17 29.74 1007 10 16 N/A
1:55 pm 13:55 Sunny 81 27 55 12.7 41 41 SSW 12 19 29.74 1007 10 16 N/A
2:15 pm 14:15 Sunny 82 27.6 54 12.2 38 38 SSW 13 20 29.74 1007 10 16 N/A
2:35 pm 14:35 Sunny 83 28.4 54 12 36 36 SSW 15 24 29.71 1006 10 16 N/A
2:55 pm 14:55 Sunny 84 28.7 54 12.1 36 36 S 12 19 29.71 1006 10 16 N/A
3:15 pm 15:15 Sunny 85 29.6 52 10.9 31 31 SSW 14 22 29.68 1005 10 16 N/A
3:35 pm 15:35 Sunny 85 29.6 51 10.8 31 31 S 17 28 29.68 1005 10 16 N/A
3:55 pm 15:55 Sunny 86 30.2 51 10.5 29 29 SSW 12 19 29.68 1005 10 16 N/A
4:15 pm 16:15 Sunny 87 30.6 50 9.9 28 28 SW 12 19 29.65 1004 10 16 N/A
4:35 pm 16:35 Sunny 87 30.8 50 9.8 27 27 SSW 13 20 29.65 1004 10 16 N/A
4:55 pm 16:55 Sunny 87 30.8 50 10 28 28 SSW 12 19 29.65 1004 10 16 N/A
5:15 pm 17:15 Sunny 88 31 49 9.6 26 26 SSW 9 15 29.65 1004 10 16 N/A
5:35 pm 17:35 Sunny 88 30.9 49 9.6 27 27 SSW 12 19 29.65 1004 10 16 N/A
5:55 pm 17:55 Sunny 87 30.7 51 10.4 28 28 SSE 3 6 29.65 1004 10 16 N/A
6:15 pm 18:15 Sunny 86 30 51 10.3 29 29 S 3 6 29.65 1004 10 16 N/A
6:35 pm 18:35 Sunny 84 29.1 58 14.4 41 41 N N/A 29.65 1004 10 16 N/A
6:55 pm 18:55 Sunny 83 28.3 58 14.4 43 43 N N/A 29.68 1005 10 16 N/A
7:15 pm 19:15 Sunny 82 27.5 56 13.5 42 42 N N/A 29.68 1005 10 16 N/A
7:35 pm 19:35 Sunny 78 25.3 58 14.7 52 52 N N/A 29.74 1007 10 16 N/A
7:55 pm 19:55 Clear 74 23.6 56 13.6 54 54 S 7 11 29.74 1007 10 16 N/A
8:15 pm 20:15 Clear 73 22.6 52 10.9 48 48 SSW 9 15 29.74 1007 10 16 N/A
8:35 pm 20:35 Clear 71 21.8 51 10.7 49 49 SSW 8 13 29.77 1008 10 16 N/A
8:55 pm 20:55 Clear 73 23 49 9.3 42 42 SSW 8 13 29.77 1008 10 16 N/A
9:15 pm 21:15 Clear 75 24 47 8.4 37 37 SSW 9 15 29.77 1008 10 16 N/A
9:35 pm 21:35 Clear 71 21.7 49 9.5 46 46 SSW 9 15 29.80 1009 10 16 N/A
9:55 pm 21:55 Clear 68 20.1 50 10 52 52 SSW 8 13 29.80 1009 10 16 N/A
10:15 pm 22:15 Clear 65 18.5 51 10.4 59 59 S 7 11 29.83 1010 10 16 N/A
10:35 pm 22:35 Clear 65 18.2 51 10.4 61 61 S 6 9 29.85 1011 10 16 N/A
10:55 pm 22:55 Clear 66 18.9 50 10.1 57 57 S 3 6 29.85 1011 10 16 N/A
11:15 pm 23:15 Clear 66 18.7 50 10 57 57 N N/A 29.85 1011 10 16 N/A
11:35 pm 23:35 Clear 65 18.3 50 9.9 58 58 N N/A 29.85 1011 10 16 N/A
11:55 pm 23:55 Clear 63 17.1 51 10.6 66 66 N N/A 29.85 1011 10 16 N/A

Powered by AerisWeather